Tracking 30258 objects as of 19-Feb-2025
HD Live streaming from Space Station
objects crossing your sky now

GEESAT 3-02

Track GEESAT 3-02 now!
10-day predictions


NORAD ID: 61012
Int'l Code: 2024-159B
Perigee: 591.9 km
Apogee: 603.5 km
Inclination: 50.0 °
Period: 96.5 minutes
Semi major axis: 6968 km
RCS: Unknown
Launch date: September 5, 2024
Source: People's Republic of China (PRC)
Launch site: Taiyaun Space Center, China (TSC)
Your satellite tracking list
Your tracking list is empty




NASA's NSSDC Master Catalog

Two Line Element Set (TLE):
1 61012U 24159B   25050.07439363  .00009441  00000-0  93445-3 0  9994
2 61012  49.9932 178.3785 0008277 231.2439 128.7764 14.92367099 24848
Source of the keplerian elements: AFSPC